Other Surface Observations
Issued by NWS Charleston, SC

Home | Current Version | Previous Version | Text Only | Print | Product List | Glossary On
Versions: 1 2 3 4 5 6 7 8 9 10 11 12 13 14 15 16 17 18 19 20 21 22 23 24 25 26 27 28 29 30 31 32 33 34 35 36 37 38 39 40 41 42 43 44 45 46 47 48 49 50
192
SXUS52 KCHS 251612
OSOCHS

MARINE OBSERVATIONS
NATIONAL WEATHER SERVICE CHARLESTON SC
1200 PM EDT SUN JUN 25 2017

...DOWNTOWN CHARLESTON AND HARBOR...

CITY           SKY/WX    TMP DP  RH WIND       PRES   REMARKS
WATERFRONT PRK   N/A     84  73  69 VRB3      30.07S HX  90

...LAKE MOULTRIE...

CITY           SKY/WX    TMP DP  RH WIND       PRES   REMARKS
PINOPOLIS        N/A     82  72  69 CALM      30.02R

...LAKE AND SUPPLEMENTAL COASTAL OBSERVATIONS...

STATION/POSITION TIME  TEMP    WIND        PRES    WAVE   SWELL
                       AIR SEA DIR/SP/G            HT/PER HT/PER/DIR
                 (UTC) (F)     (DEG/KT/KT) (MB)    (FT/S) (FT/S/D)
FORT PULASKI     1548   85 84  200/  6/  9 1019.2R
SAPELO ISLAND    1500   87     230/  6     1019.0
WINYAH BAY       1445   81     290/  4     1018.0
LAKE MURRAY      1520   83      CALM  /  3 1017.9
ACE BASIN NERRS  1445   87        CALM     1019.0


...C-MAN AND BUOY OBSERVATIONS...

STATION/POSITION TIME  TEMP    WIND        PRES    WAVE   SWELL
                       AIR SEA DIR/SP/G            HT/PER HT/PER/DIR
                 (UTC) (F)     (DEG/KT/KT) (MB)    (FT/S) (FT/S/D)
BUOY 41004       1550   80 81  240/ 10/ 12 1018.8R   4/ 6   3/170/ 6
BUOY 41008       1550   81 82  220/ 10/ 10 1018.8R   3/ 9   2/120/ 9
FOLLY BEACH CMAN 1600   83     190/  5/  6 1019.5R
CAPERS NS BUOY   1508   87 83  230/  4/  6 1018.6R
FRIPP NS BUOY    1508   83 84  200/  2/  6 1018.6R
5E ST. MARYS GA  1600      81                N/A     2/ 9


STATION/POSITION TIME  TEMP    WIND        PRES    WAVE   SWELL
                       AIR SEA DIR/SP/G            HT/PER HT/PER/DIR
                 (UTC) (F)     (DEG/KT/KT) (MB)    (FT/S) (FT/S/D)
FRYING PAN BUOY  1600   80 80  250/ 14/ 16 1018.1
BUOY 41025       1550   78 80  260/  8/ 10 1017.1F   4/ 6   3/230/ 6
CAPE LOOKOUT NC  1600   80     250/ 11/ 13 1017.4R
BUOY 41002       1550   81 80  210/ 14/ 16 1021.1R   4/ 6   2/230/15
BUOY 41010       1600   83 83  180/ 10/ 14 1021.0
ST AUGUSTINE FL  1600   78 77  150/ 10/ 11 1020.4F

$$




USA.gov is the U.S. government's official web portal to all federal, state and local government web resources and services.